Wind_Speed
12 11 10 9 8 7 7 8 10 10 11 12 13 14 14 15 15 15 16 16 15 16 16 16 16 17 19 19 18 19 20 21 21 21 21 22 23 24 24 25 25 26
13 12 12 11 10 8 7 7 8 9 10 11 11 12 13 13 13 14 15 15 15 15 15 15 15 16 18 18 18 18 20 21 22 22 22 23 23 24 25 26 27 28
14 13 12 12 12 11 10 8 8 8 9 10 10 11 12 12 13 13 14 14 15 15 15 16 15 15 16 16 16 17 18 20 21 22 23 23 23 24 25 26 27 28
13 13 12 12 11 11 10 10 10 11 11 11 10 11 11 11 11 12 12 12 14 15 16 17 17 16 16 15 15 16 17 19 20 21 23 24 24 23 25 26 26 28
13 13 13 12 12 11 12 12 13 13 13 13 12 11 11 11 11 11 11 11 13 15 16 17 17 18 18 16 15 15 17 18 19 20 22 24 24 24 24 24 25 26
14 14 14 15 14 14 14 14 15 15 15 15 14 13 12 12 12 13 12 12 13 15 17 18 18 19 20 19 18 17 17 19 19 19 19 21 23 25 25 24 24 25
16 16 15 15 15 15 16 16 17 17 16 15 14 14 14 13 13 14 15 15 15 16 18 21 21 21 22 21 21 20 19 20 21 20 20 19 20 22 24 24 23 23
16 16 15 16 16 17 18 19 19 19 17 15 15 15 14 14 14 15 15 15 16 17 19 22 23 23 23 23 23 23 22 22 22 23 22 21 20 21 21 22 23 23
16 16 16 17 18 19 20 20 20 21 20 19 19 18 16 15 15 16 16 17 17 18 19 22 24 24 25 25 26 26 25 24 24 23 23 22 21 21 21 21 22 23
16 16 17 18 19 20 20 21 22 22 23 23 23 22 21 19 17 17 18 18 19 19 20 22 25 25 25 26 26 27 27 26 25 25 24 23 22 21 20 20 21 22
16 16 18 19 20 20 21 22 23 23 24 25 25 25 25 23 21 19 19 19 19 19 19 21 24 26 27 28 28 27 27 27 27 26 25 25 23 22 21 19 19 21
16 17 19 19 19 20 20 21 23 24 24 25 25 26 26 26 24 22 19 18 17 18 18 19 22 24 27 31 30 28 28 28 28 28 27 26 25 24 23 21 19 20
16 17 18 20 20 19 19 20 21 23 24 24 24 25 26 26 26 24 20 17 16 17 18 19 22 24 28 33 32 29 29 29 28 28 27 27 27 26 25 23 20 19
15 15 17 20 21 20 20 20 21 22 23 24 24 25 26 26 26 25 22 19 17 18 18 19 24 28 31 35 34 30 29 28 26 26 26 27 28 27 26 25 22 20
15 15 16 18 20 21 21 21 22 22 23 24 25 26 26 26 26 26 25 22 19 19 20 21 27 33 34 35 34 31 29 27 25 25 26 27 28 27 26 25 22 20
16 16 15 16 17 18 19 21 22 23 24 25 26 26 26 26 27 27 27 24 21 22 23 24 29 35 36 36 33 29 27 26 24 24 25 25 26 26 25 24 23 22
17 17 16 15 16 16 17 18 19 21 23 24 25 26 26 27 27 27 27 25 24 25 25 26 31 36 37 37 34 29 25 25 25 24 23 23 23 23 23 24 24 24
18 17 17 17 17 17 17 17 19 20 22 23 23 24 25 26 27 28 27 27 26 26 26 27 32 37 38 38 36 31 26 25 25 24 24 24 25 25 25 25 25 26
19 19 19 19 19 18 18 18 20 21 22 22 22 23 25 26 27 28 28 28 28 28 28 28 33 37 39 39 38 34 29 27 26 25 25 26 27 28 28 27 26 27
21 21 21 20 19 19 18 19 20 21 21 21 21 23 25 27 27 28 29 29 29 29 29 30 33 36 38 39 39 38 34 31 29 27 27 28 28 28 29 28 27 27
22 21 21 20 20 19 19 20 20 20 20 20 21 23 24 26 27 29 29 30 30 30 30 31 33 34 36 37 39 39 38 36 32 29 28 29 28 29 30 29 28 27
23 23 22 22 21 21 21 21 21 21 20 20 20 22 24 26 27 29 29 30 30 31 31 32 34 35 34 34 36 38 38 37 34 30 30 31 31 31 32 33 31 30
24 24 24 24 24 24 23 23 22 22 21 20 20 22 24 25 27 28 29 30 31 32 32 32 34 36 35 34 34 35 36 35 34 31 31 32 33 32 33 34 33 32
26 26 26 25 25 25 24 24 24 24 23 22 21 22 23 24 26 28 29 30 31 32 32 32 34 36 37 36 34 34 34 34 33 31 30 31 33 33 33 34 34 34
27 27 27 27 26 26 25 25 25 25 24 24 24 24 24 24 26 28 30 31 31 32 32 33 34 35 37 37 36 35 35 34 34 33 30 30 33 34 34 35 35 36
26 27 27 27 27 26 26 26 25 26 26 26 26 26 26 26 27 28 29 30 31 32 32 33 34 35 35 36 36 36 36 35 35 34 31 29 32 33 34 36 37 38
Wind_Direction
52 50 44 38 30 15 1 358 2 7 10 8 6 2 1 2 0 360 0 357 353 351 349 346 345 344 338 331 324 319 314 310 306 301 295 288 284 281 278 274 270 262
63 61 57 49 41 32 23 13 4 0 2 2 359 355 354 355 354 359 2 1 359 357 353 349 347 347 346 340 332 325 320 314 310 307 302 294 289 286 282 278 275 269
65 63 61 54 46 40 34 29 20 11 4 356 349 349 351 349 349 354 360 3 2 359 358 358 354 350 347 343 337 330 326 321 315 311 307 301 298 294 289 283 278 273
63 60 58 52 44 38 33 32 28 21 16 9 0 355 353 349 346 344 350 3 4 358 359 359 358 355 349 342 338 332 328 324 320 315 308 302 300 298 294 289 280 275
63 58 52 45 38 36 36 35 30 25 24 22 17 13 7 4 2 356 356 7 6 360 360 359 356 357 355 349 344 336 329 324 321 318 310 303 301 299 296 291 282 277
60 54 49 43 40 39 39 37 32 30 29 26 26 27 24 19 17 14 12 13 8 1 2 2 359 358 356 352 349 342 333 327 323 321 315 309 306 302 297 291 285 280
55 51 48 45 43 42 41 39 36 32 29 27 29 30 29 25 21 18 16 14 10 1 2 5 3 0 357 353 350 345 335 330 328 327 323 316 312 307 302 297 291 284
54 52 51 49 48 46 44 43 39 35 33 32 33 32 30 29 26 22 18 17 14 5 1 4 3 360 357 354 352 346 339 335 333 331 328 321 315 310 304 303 299 292
58 56 54 53 52 50 46 44 42 40 40 41 40 37 34 32 28 25 23 21 20 13 6 4 4 1 357 353 350 347 342 338 334 330 328 324 318 312 305 302 301 297
63 59 58 57 55 52 49 47 45 44 43 43 43 41 39 37 32 27 24 22 19 16 10 7 6 4 0 355 351 348 342 337 334 329 326 323 316 310 305 299 297 297
67 64 61 60 58 55 52 49 47 45 43 42 42 41 40 40 38 32 26 22 18 14 10 7 6 4 2 358 353 349 343 339 336 332 327 324 318 310 304 299 294 292
69 67 63 61 59 56 53 50 46 44 42 40 39 39 38 38 38 35 28 21 17 13 9 4 1 0 359 356 353 350 345 343 340 337 332 327 322 316 309 302 294 290
70 69 64 61 59 58 55 52 47 44 41 40 39 38 37 35 35 34 30 24 18 13 9 4 359 359 357 355 354 352 348 346 344 342 338 333 327 322 316 310 300 293
71 70 67 61 59 58 57 54 50 46 42 40 39 38 36 34 33 32 31 29 22 16 11 6 3 2 359 356 356 353 350 350 348 345 343 339 334 330 327 323 313 301
73 74 72 64 60 58 56 54 51 48 44 41 40 38 36 35 35 34 32 29 23 18 14 10 8 5 1 0 360 356 353 353 353 350 347 344 341 340 339 335 326 314
78 78 75 68 61 57 54 52 49 47 44 41 39 38 36 35 35 35 34 30 24 20 17 14 10 6 5 6 5 1 358 0 359 354 349 347 347 345 343 340 333 324
81 78 73 67 63 59 55 51 48 46 43 40 38 36 34 34 34 35 34 31 27 23 18 14 10 8 10 11 8 7 8 9 6 359 355 352 352 351 348 344 338 332
79 75 70 66 63 61 59 55 50 47 44 41 38 35 34 34 32 32 31 30 28 25 21 16 11 12 15 14 10 11 14 15 10 5 3 2 359 358 356 352 347 342
77 72 68 65 63 63 63 59 53 49 45 43 41 39 38 36 33 32 31 29 27 25 22 19 15 16 18 17 14 14 17 18 14 8 6 7 5 3 1 358 356 351
75 71 66 64 63 64 63 59 54 50 49 47 45 44 41 38 36 34 32 30 28 26 24 22 18 18 21 20 18 18 20 21 17 10 7 7 6 5 4 2 0 356
73 69 67 64 64 65 62 59 55 52 51 51 50 48 45 41 39 36 34 32 30 28 27 24 21 20 22 22 20 20 21 22 20 13 9 8 7 6 6 5 4 1
72 70 68 66 65 65 62 58 55 52 52 53 54 52 49 45 42 39 36 34 32 30 28 26 23 22 22 22 21 20 20 21 21 16 11 10 9 8 8 10 9 4
74 72 70 68 67 65 62 59 56 54 53 54 54 52 49 46 43 40 38 35 34 32 29 26 25 25 24 23 22 21 21 21 19 16 13 12 12 10 9 11 12 8
77 74 71 70 68 65 63 61 58 56 54 54 54 52 49 47 44 42 41 38 36 34 31 29 28 27 27 27 24 22 22 22 18 14 11 11 12 12 11 12 13 12
79 76 73 71 69 66 64 61 59 57 56 56 55 53 50 48 46 44 42 40 38 36 34 32 30 29 29 29 27 25 24 23 21 16 11 10 12 12 11 11 13 14
83 78 75 72 70 68 65 62 60 58 56 55 54 53 51 49 47 44 42 40 38 37 35 34 31 30 30 30 30 28 26 25 25 21 14 9 11 12 11 10 12 14
Height
817 817 817 818 818 818 818 818 817 816 815 814 813 812 810 808 807 805 803 802 801 800 798 797 796 795 794 793 792 791 790 790 789 789 788 787 786 785 785 784 783 783
819 819 819 819 819 819 819 818 818 817 816 815 813 812 810 808 807 805 804 802 801 799 798 797 796 795 794 792 791 790 789 788 787 787 786 785 784 783 782 782 781 780
821 820 820 820 820 820 819 818 818 817 816 814 813 812 810 809 807 806 804 802 801 799 798 797 796 794 793 792 790 789 788 787 786 785 785 783 782 781 780 779 778 777
822 822 822 822 822 821 820 819 818 817 816 814 813 812 810 809 808 806 804 802 801 800 798 797 796 794 793 792 790 789 787 786 785 784 783 781 780 779 777 776 775 774
824 824 824 824 823 822 821 820 819 818 816 815 813 812 810 809 807 805 804 802 801 800 798 797 796 794 792 791 789 788 786 785 784 783 781 779 778 777 775 774 772 771
826 826 825 825 825 824 823 821 820 819 817 815 813 812 810 809 807 805 804 802 801 799 798 796 795 793 792 790 789 787 786 784 783 781 779 777 776 775 773 772 770 769
827 827 827 827 826 825 823 822 820 819 817 816 814 812 810 809 807 806 804 802 801 799 798 796 794 793 791 790 788 786 785 783 781 779 778 776 774 773 771 770 769 767
829 829 828 828 827 826 824 822 821 819 818 816 814 812 811 809 808 806 804 803 801 800 798 796 794 792 791 789 787 786 784 782 780 778 776 774 772 771 770 768 767 765
831 831 830 829 828 827 825 823 822 820 818 816 815 813 811 809 808 806 805 803 802 800 799 797 795 793 791 789 787 785 783 781 779 777 775 773 771 769 768 766 765 763
833 832 831 830 829 828 826 825 823 821 820 818 816 814 812 810 808 807 805 804 802 801 799 798 796 793 791 789 787 785 783 780 778 776 773 771 769 767 766 764 762 761
835 834 832 831 830 829 828 826 824 823 821 819 817 815 813 811 809 807 806 805 803 802 801 799 797 795 792 790 787 785 782 779 777 774 772 769 767 765 764 762 760 759
836 835 834 832 831 830 829 827 826 824 822 821 819 816 814 812 810 808 807 806 805 804 802 801 798 796 793 790 787 784 781 778 775 772 770 767 765 763 761 760 758 757
838 837 835 834 832 831 830 829 827 826 824 822 820 818 816 813 811 810 809 808 807 805 804 802 800 797 794 790 787 783 780 776 773 771 768 765 763 761 759 758 756 755
839 838 836 835 834 832 831 830 829 827 826 824 822 819 817 815 813 812 810 809 808 806 805 803 801 798 794 790 786 782 779 776 773 770 767 764 762 760 758 756 754 753
839 838 837 836 835 834 833 831 830 829 827 825 823 821 820 818 815 813 811 810 809 807 806 804 801 799 796 792 787 783 779 775 772 769 766 763 760 758 756 754 753 751
839 838 838 837 836 835 834 833 831 830 828 827 825 823 821 819 817 815 813 811 810 809 807 805 803 800 797 793 788 784 779 775 772 769 767 764 761 758 755 753 752 750
840 839 839 838 837 836 835 834 833 831 830 828 826 825 823 821 819 816 815 813 812 810 808 806 804 801 797 792 788 784 780 776 773 770 768 765 762 759 756 753 750 748
841 840 840 839 838 838 836 835 834 832 831 829 828 826 824 822 820 818 816 815 813 811 809 807 805 801 797 792 788 784 780 777 774 772 769 766 763 759 756 753 750 747
843 842 841 840 840 839 837 836 835 833 832 830 829 828 826 824 822 820 818 816 814 812 810 808 805 802 797 793 789 785 781 777 775 773 770 767 764 760 757 754 750 747
844 843 843 842 841 840 839 837 836 835 834 832 831 830 828 826 824 822 820 818 815 813 811 809 806 803 799 795 791 787 782 778 776 774 771 768 765 762 759 755 752 749
846 845 845 843 843 841 840 839 837 836 835 834 833 831 830 828 826 823 821 819 817 815 812 810 808 804 801 797 793 789 784 780 777 775 773 770 767 764 761 757 753 750
848 847 846 845 844 843 841 840 839 838 837 836 835 833 832 830 827 825 823 821 818 816 813 811 809 805 802 798 795 791 786 782 779 777 774 771 768 766 762 759 755 751
850 849 848 847 845 844 843 842 841 840 839 838 837 835 833 831 829 827 825 822 820 817 815 812 810 807 804 800 796 793 788 785 782 779 776 773 770 767 764 760 757 753
853 851 850 849 847 846 845 844 843 842 841 840 838 837 835 833 831 829 827 824 822 819 817 815 812 809 806 802 798 795 791 787 784 781 778 775 772 769 766 762 759 755
855 853 852 851 849 848 847 846 845 844 843 842 840 838 837 835 833 830 828 826 824 821 819 817 814 811 808 804 801 797 793 790 787 784 780 777 773 770 767 764 760 756
856 855 854 853 851 850 849 848 847 846 845 843 841 840 838 836 834 832 829 828 826 823 821 818 816 813 810 807 804 800 796 793 789 786 783 780 777 773 769 765 761 757